Showing default

ATS 3, 3029

Orbit data source: Space-Track

ATS 3, 3029 is a payload satellite owned by GSFC (US) in GEO that was launched on Sun, 05 Nov 1967 UTC via an ATLAS SLV-3 AGENA D launch vehicle from the Air Force Eastern Test Range (AFETR). Payload-class satellites include a variety of spacecraft equipped with specific instruments for various scientific and technological missions. These include communications satellites like Starlink; space stations such as the ISS; scientific satellites like the Hubble; Earth observation satellites from companies like Planet Labs, Umbra, and HawkEye 360; GPS; miniature CubeSats for education and research; and military/defense satellites.

Loading next visibility...
Identifier
3029, 1967-111A
Orbit
GEO
Country
Flag of USUS
Related business
Manufacturer
Hughes
Mission
Non-operational spacecraft
Bus & Motor
HS-306, JPL SR-28-3
Mass
714 kg wet, 252 kg dry
Launch date (UTC)
1967-11-05 (59 years ago)
Launch vehicle
ATLAS SLV-3 AGENA D
Launch site
Air Force Eastern Test Range (AFETR)
Object type
Payload
Rocket body
Debris
Shape & HBR
CYL, 1.1 m
Radar Cross Section
Large (>1 m²)

Expand to show TLE details & history
Last TLE update: 12 hours ago

TLE from 12 hours ago
0 ATS 3
1 03029U 67111A   26255.20212795 -.00000102  00000-0  00000-0 0  9992
2 03029   3.3949  77.3020 0015349  40.1074 201.4414  1.00271951215506
Epoch: 2026-09-12T04:51Z
TLE epoch observation values (Epoch: 2026-09-12T04:51:03.854Z)
Latitude
-2.97191°
Longitude
-105.23989°
Altitude
35,846.778 km
Speed
3.07 km/s
True Right ascension
21h 14m 57s
True Declination
-2° 58' 08"
Sunlit
Object was in daylight at epoch
Visualization orbit readout
Latitude
Unknown
Longitude
Unknown
Altitude
Unknown
Speed
Unknown
Apparent Right ascension
Unknown
Apparent Declination
Unknown
Sunlit
N/A
Visualization observer readout
Local Sidereal Time
09:12:13
Azimuth
Unknown
Elevation
Unknown
Doppler factor
Unknown
Orbital elements
Apogee altitude
35,852.334 km
Perigee altitude
35,722.893 km
Semi-major axis
42,165.75 km
Eccentricity
0.00153
Inclination
3.3949°
RAAN
77.302°
Arg. of periapsis
40.1074°
True anomaly
201.37722°
Mean anomaly
201.4414°
Eccentric anomaly
201.4093°
Mean motion
0.25067 °/min
Orbital period
1,436.15 mins
BSTAR
0
Loading maneuver chart data...
Computing Atmospheric mass density...
Loading historical data...
Loading historical data...
Loading historical data...
Loading historical data...
Loading historical data...
Loading historical data...
Loading historical data...
Other satellites on launch #111 in the year 1967 (1967-11-05 UTC)

Documentation

Showing up to 5 results
|